Wind_Speed
37 37 35 35 35 33 31 31 30 30 29 27 26 26 26 26 25 25 23 22 21 20 19 18 17 18 18 16 15 14 14 14 15 14 12 11 11 11 12 13 12 10
39 38 36 35 35 34 32 32 31 30 30 28 27 26 25 25 25 26 25 23 23 22 20 19 17 18 19 19 17 16 14 13 14 15 14 12 11 11 11 13 13 12
40 39 38 36 36 36 35 33 32 32 31 29 28 27 26 25 25 25 26 25 24 23 21 20 18 18 20 20 19 17 16 14 14 15 16 14 12 11 11 11 14 14
41 41 40 39 37 37 37 35 34 34 33 32 30 29 28 26 25 25 26 26 25 24 23 21 20 19 19 20 19 18 17 17 15 14 16 17 15 14 12 11 13 15
42 42 42 40 39 38 37 36 36 36 35 35 33 31 30 28 27 26 26 26 26 25 24 22 21 20 20 19 19 19 19 18 17 15 16 17 16 16 14 12 13 14
40 41 41 40 38 37 37 38 39 38 37 36 35 34 32 31 29 28 27 27 26 26 25 24 23 22 21 21 21 21 21 20 20 18 18 18 18 17 16 15 15 15
39 40 40 39 37 36 37 39 40 40 39 38 36 35 34 32 32 30 29 28 27 27 26 25 25 23 22 22 23 23 23 23 23 22 21 21 21 20 20 19 19 18
38 39 39 38 37 36 36 38 39 40 40 39 38 36 35 34 33 32 31 30 29 28 27 26 25 24 24 24 25 25 25 25 25 25 25 24 24 24 24 23 22 22
37 38 38 38 37 37 36 37 38 39 40 40 39 38 37 36 35 34 33 31 30 30 29 27 26 26 25 25 26 26 27 27 27 27 27 26 26 25 25 24 24 24
37 37 37 38 38 38 38 37 37 37 37 39 40 39 38 38 36 35 34 33 32 31 30 30 28 27 27 27 28 28 28 28 28 28 28 27 27 26 25 24 24 25
38 37 37 38 39 40 40 39 37 35 35 36 38 38 39 38 37 36 35 34 34 33 33 32 31 30 29 29 30 30 30 30 29 29 28 28 28 27 27 26 25 25
38 38 39 39 40 40 41 40 38 36 35 35 36 37 38 38 37 37 36 36 36 36 35 35 33 32 31 31 31 31 31 31 30 30 30 29 29 28 28 28 28 27
38 39 40 39 40 40 40 40 39 38 37 36 36 36 37 37 37 37 37 38 38 38 37 37 36 34 33 32 32 32 32 32 31 31 31 30 30 30 29 29 29 29
39 39 39 39 39 39 39 39 39 39 39 38 36 36 36 37 37 37 37 37 38 38 38 38 37 36 35 34 33 33 32 32 32 32 32 32 32 31 30 30 30 30
38 37 38 38 38 38 39 40 40 39 39 38 37 36 36 36 36 36 35 36 36 37 37 37 36 36 36 36 35 35 34 34 34 33 33 33 33 32 31 31 31 31
36 36 36 36 37 38 40 40 40 39 38 38 38 38 37 36 36 35 35 35 35 35 36 36 36 36 37 37 37 36 36 35 34 34 34 34 33 33 32 32 31 32
36 36 35 36 38 39 39 39 40 39 38 38 38 38 38 37 36 36 36 36 35 35 35 35 36 36 37 37 37 37 36 35 35 35 34 34 34 33 33 33 33 32
36 36 36 37 38 39 40 40 39 38 37 37 37 38 37 37 37 37 38 37 36 35 35 36 37 37 37 37 38 38 37 36 35 35 34 34 34 34 34 34 33 33
35 35 36 37 38 39 39 38 37 37 38 38 38 37 36 36 37 38 38 38 37 37 37 37 38 38 37 37 38 38 38 37 36 35 35 34 34 34 34 34 34 33
35 36 37 38 38 37 36 36 36 38 39 38 37 36 36 37 38 38 38 38 38 38 38 38 38 38 38 38 38 39 38 38 37 36 36 35 35 35 34 34 34 33
36 37 37 38 38 37 36 36 37 38 38 38 37 37 37 38 38 37 38 38 38 38 37 38 39 39 38 38 38 39 38 38 37 37 36 35 35 35 35 35 34 34
36 37 37 37 37 36 36 36 37 39 39 38 37 37 37 37 37 37 38 38 38 38 37 38 40 40 39 39 39 38 38 37 37 37 36 36 36 36 36 36 36 35
33 35 36 36 35 35 36 37 38 38 38 37 35 35 36 36 37 38 38 38 37 37 37 39 40 40 40 40 40 38 37 37 37 37 36 36 36 37 36 36 37 37
25 29 31 33 34 35 36 37 37 37 36 36 36 36 36 36 37 37 37 37 38 39 39 40 41 41 40 40 40 39 37 37 37 36 36 36 36 37 37 37 37 38
18 24 27 29 31 34 37 36 36 36 35 35 36 36 36 36 36 35 36 37 38 39 40 40 41 41 40 40 40 39 38 37 37 35 35 35 36 36 36 36 37 38
13 19 25 28 29 31 33 33 34 34 34 34 35 36 35 35 35 35 35 36 37 38 38 40 41 40 39 40 40 40 39 38 37 35 35 35 36 35 35 35 35 36
Wind_Direction
210 213 215 217 218 218 217 214 214 215 217 218 221 221 220 219 218 215 214 217 219 223 226 229 228 226 224 225 230 240 251 251 243 242 243 242 244 243 239 238 239 248
209 213 216 218 218 219 219 217 216 217 218 221 223 225 224 223 221 219 218 219 221 224 227 229 229 228 226 227 230 238 246 246 241 241 243 245 246 245 245 243 241 247
209 212 215 218 218 219 220 220 220 220 221 223 226 228 228 227 225 223 221 222 224 227 229 231 232 231 229 228 231 237 242 243 244 243 241 244 246 247 250 249 246 247
209 211 214 217 219 220 221 221 221 222 223 225 227 230 231 230 229 227 225 226 228 230 232 233 235 234 231 229 232 237 242 244 247 246 243 242 244 247 250 252 251 249
209 212 214 217 219 220 222 223 223 224 225 227 229 231 232 232 231 230 228 229 230 231 233 234 237 237 234 232 234 239 243 245 245 245 244 242 241 243 244 248 253 252
209 212 214 217 219 221 222 224 225 226 227 229 230 231 232 232 233 232 231 231 231 232 234 235 237 239 238 236 237 240 243 245 246 245 245 245 244 243 244 247 251 254
209 211 214 216 219 221 223 224 225 226 228 229 229 231 232 232 233 234 234 233 232 232 232 233 235 237 239 239 240 241 243 245 247 248 249 250 249 249 248 248 250 253
210 211 213 215 218 221 223 224 224 225 227 227 228 230 232 232 233 234 235 234 233 232 232 232 234 237 238 240 242 244 245 245 247 249 252 253 253 252 251 250 251 252
211 212 213 214 217 220 223 224 225 225 225 226 227 229 230 231 233 235 235 235 234 233 233 234 237 239 239 241 243 245 247 248 248 249 251 254 254 254 251 250 250 250
211 212 213 214 216 219 222 225 226 226 225 226 227 228 229 230 232 234 234 234 234 234 235 237 240 242 242 242 244 246 248 249 250 251 252 253 255 255 254 252 251 250
212 212 213 215 216 218 221 224 226 227 227 227 227 227 228 229 231 231 232 233 235 236 237 239 242 244 245 245 245 247 248 250 251 252 254 255 256 258 257 256 254 254
211 212 214 215 217 219 220 222 224 226 228 229 229 229 229 229 230 231 232 233 236 238 239 241 244 245 246 247 248 248 249 250 251 252 254 256 258 259 259 259 258 258
212 213 214 216 218 220 221 222 223 224 227 229 231 232 232 231 231 232 233 235 237 239 241 243 244 245 246 247 248 248 249 249 250 251 254 256 258 259 260 261 261 262
213 214 215 216 218 220 222 224 224 224 226 227 230 232 234 234 234 234 235 236 238 240 241 243 243 243 244 245 246 247 247 247 248 250 252 255 257 259 260 260 262 263
214 215 216 217 218 220 222 224 225 226 226 227 228 230 233 235 235 236 236 237 238 240 241 242 242 242 243 243 244 244 244 245 247 248 250 253 255 258 259 260 261 263
216 216 216 217 218 220 222 224 226 227 227 228 228 229 231 233 235 236 236 237 238 239 241 241 242 242 243 243 243 243 243 243 244 246 248 249 252 255 258 260 261 263
216 217 217 217 219 220 222 223 225 226 227 229 230 230 231 232 233 235 236 237 238 239 240 241 242 243 243 244 244 244 243 242 242 244 246 247 249 251 255 259 261 263
215 216 217 218 219 220 221 223 224 225 227 228 230 231 232 232 233 235 236 237 238 239 240 241 243 244 244 244 245 245 244 242 241 242 243 245 246 248 252 256 259 262
215 216 217 219 220 221 222 222 222 224 225 227 229 231 232 233 234 235 237 237 238 239 240 242 244 245 245 245 246 246 245 242 240 240 241 243 245 247 250 253 256 259
214 215 217 220 221 222 222 222 222 224 225 226 228 229 230 232 234 235 236 237 238 238 240 241 243 245 245 246 246 246 246 244 241 239 240 242 244 246 248 251 254 256
213 214 216 219 220 220 221 221 222 224 225 226 226 227 228 230 232 234 235 236 237 238 238 240 242 244 245 245 246 247 246 245 242 239 238 240 243 245 247 250 253 254
213 214 216 218 218 218 219 220 222 223 224 225 225 226 228 229 230 232 234 235 236 236 236 239 241 243 243 244 246 246 245 244 242 239 237 238 241 244 246 249 251 253
215 214 216 217 216 217 218 220 222 223 224 224 223 224 226 227 228 230 232 233 235 235 235 237 240 241 242 243 245 245 244 242 240 238 236 237 240 243 245 247 250 251
229 222 219 217 217 217 219 221 222 223 224 223 222 224 225 227 228 229 231 232 233 234 234 235 238 240 240 241 243 244 242 241 240 237 235 236 239 242 244 246 249 251
251 238 229 222 220 220 221 221 222 223 223 223 223 224 225 227 228 229 230 231 232 234 234 235 237 239 239 240 242 242 241 240 238 235 233 235 238 241 243 245 247 250
270 254 242 233 228 226 225 224 223 223 222 222 223 224 225 226 227 227 229 231 231 233 234 234 236 238 238 239 240 240 240 239 235 232 231 235 237 239 241 244 246 248
Height
823 825 827 828 830 831 833 834 835 837 838 840 841 842 843 845 847 848 849 850 852 853 854 855 856 857 858 859 860 860 861 861 862 862 863 863 863 863 863 864 864 864
820 823 825 827 828 830 831 832 834 835 837 838 839 841 843 844 845 847 848 849 850 852 853 854 855 856 857 858 859 859 860 860 861 862 862 863 863 863 863 863 864 864
817 820 822 824 826 827 829 830 832 834 835 837 838 840 842 843 844 846 847 848 850 851 852 853 854 855 856 857 858 859 859 860 860 861 862 862 863 863 863 863 863 864
814 817 819 822 823 825 827 829 830 832 833 835 836 838 840 841 843 844 846 847 849 850 851 852 853 854 855 856 857 858 858 859 860 860 861 861 862 862 862 863 863 863
811 814 817 819 821 824 826 827 828 829 831 833 834 836 838 840 842 843 845 846 847 849 850 851 852 853 854 855 856 857 857 858 859 860 860 861 861 862 862 862 862 862
809 812 815 817 820 822 824 825 826 827 829 830 832 834 836 838 840 841 843 844 846 847 848 850 851 852 853 854 855 855 856 857 858 859 859 860 860 861 861 862 862 862
807 809 812 815 818 821 822 823 824 825 827 828 830 832 834 836 837 839 841 842 844 845 847 848 849 850 851 852 853 854 855 856 857 858 858 859 859 860 860 861 861 861
804 807 810 813 816 818 820 821 822 823 825 826 828 830 832 833 835 837 839 840 842 843 845 846 847 848 849 850 851 852 853 854 855 856 857 857 858 858 859 860 860 860
803 805 807 810 813 816 818 819 821 822 823 824 826 827 829 831 833 834 836 838 840 841 842 844 845 846 847 848 849 850 851 852 853 854 855 856 856 856 857 858 859 859
801 803 805 807 809 812 814 817 819 821 822 823 824 825 827 828 830 832 834 836 837 839 840 841 843 844 845 846 847 848 848 849 851 852 852 853 854 855 856 857 858 858
797 800 802 803 805 808 810 813 816 819 820 821 822 823 824 826 827 829 831 833 834 836 837 839 840 841 843 844 845 846 846 847 848 849 850 851 852 853 854 855 856 856
794 796 798 800 802 804 806 809 812 815 818 819 821 822 823 824 825 827 828 830 831 833 834 836 837 839 840 841 842 844 845 846 846 847 848 849 850 851 852 853 854 855
790 792 794 796 799 802 804 807 809 811 814 816 818 820 821 822 823 824 826 827 829 830 831 833 835 836 837 839 840 841 843 844 845 846 846 847 848 849 850 851 852 853
786 789 791 793 796 799 802 804 806 808 810 812 815 817 818 820 821 822 823 825 826 827 829 830 832 833 834 836 837 839 840 841 842 843 844 845 846 847 848 849 850 851
784 787 789 791 794 796 798 800 803 805 807 809 811 813 815 817 819 821 822 822 824 825 826 828 829 830 831 833 834 836 837 838 840 841 842 843 843 844 845 846 847 848
782 784 787 789 791 792 794 797 799 802 805 806 808 810 812 814 816 818 819 820 821 822 823 825 826 827 828 830 831 833 834 835 837 838 839 840 841 842 843 844 845 846
780 782 784 786 787 789 791 793 796 799 801 803 805 807 809 811 813 814 815 817 818 819 820 821 822 823 825 827 828 830 831 832 834 835 836 837 838 839 840 841 842 843
776 778 780 782 783 785 787 790 793 795 798 800 802 804 806 808 809 810 811 813 815 816 817 817 818 820 822 824 825 826 828 830 831 832 833 834 835 836 837 838 839 841
773 775 777 778 780 782 784 787 789 791 793 795 797 800 803 804 805 806 808 809 811 812 813 814 814 816 818 820 821 823 824 826 828 829 830 831 832 833 834 835 837 838
769 771 773 775 777 780 782 785 786 788 789 791 794 796 799 800 801 803 804 805 807 808 809 810 810 812 814 815 817 818 820 822 824 825 826 827 828 829 831 832 834 835
764 767 769 771 773 776 779 781 782 784 785 787 790 792 793 794 796 798 800 801 802 804 805 806 806 807 809 811 812 814 816 818 820 822 823 824 825 826 827 829 830 832
760 762 764 766 769 772 774 776 778 779 781 783 786 787 789 790 792 793 794 796 797 799 801 801 801 802 804 806 807 810 812 814 816 818 819 820 821 823 824 825 826 827
757 758 760 762 765 768 769 771 773 774 777 780 782 784 785 786 787 788 789 791 793 795 796 795 795 797 799 801 803 806 808 810 812 814 816 817 818 819 820 821 822 823
757 757 758 759 762 763 765 767 769 771 773 776 778 779 780 781 782 783 784 786 787 788 789 790 790 792 794 796 798 801 804 806 808 810 811 813 814 815 816 817 818 819
755 755 756 757 758 759 761 763 765 767 769 771 773 774 776 777 779 780 780 780 782 783 784 786 786 787 790 792 794 797 799 801 803 805 807 808 810 811 812 813 814 815
751 752 753 755 755 756 758 760 761 763 765 767 768 770 771 773 774 775 775 776 777 778 780 781 781 783 785 787 789 792 794 796 799 800 802 803 805 806 808 809 810 811